Simultaneous Nadir Overpasses (SNOs) Predictions

Prediction of SNOs between AQUA and METOP-B Satellite Orbit:

Table of predicted SNOs for the next 14.0 days since TLE Epoch: 4/30/2022
Index Date (AQUA) Time (AQUA) Lat,Lon (AQUA) SZA (AQUA ) Date (METOP-B) Time (METOP-B) Lat,Lon (METOP-B) SZA (METOP-B ) Distance(km) Time Diff (sec)
1 04/30/2022 22:44:38 -73.56, 14.04 121.48 04/30/2022 22:43:28 -73.52, 12.64 121.47 44.43 70
2 04/30/2022 23:34:12 73.92,-179.11 58.89 04/30/2022 23:34:00 73.92,-179.08 58.90 0.89 12
3 05/01/2022 00:23:39 -74.00, -11.64 121.04 05/01/2022 00:24:40 -73.99, -11.58 121.05 1.98 61
4 05/03/2022 18:18:37 -73.89, 79.87 121.98 05/03/2022 18:17:41 -73.88, 79.90 121.97 1.23 56
5 05/03/2022 19:08:05 73.94,-112.62 58.08 05/03/2022 19:08:20 73.94,-112.64 58.07 1.01 15
6 05/03/2022 19:57:42 -74.53, 53.65 121.32 05/03/2022 19:58:49 -74.55, 56.24 121.37 76.80 67
7 05/06/2022 13:52:30 -73.90, 146.39 122.77 05/06/2022 13:52:02 -73.89, 146.33 122.77 1.97 28
8 05/06/2022 14:41:58 73.96, -46.11 57.29 05/06/2022 14:42:40 73.99, -46.10 57.31 3.51 42
9 05/09/2022 08:36:56 73.89, 45.31 56.46 05/09/2022 08:35:42 73.86, 45.33 56.44 3.62 74
10 05/09/2022 09:26:23 -73.95,-147.19 123.48 05/09/2022 09:26:22 -73.94,-147.14 123.50 2.32 1
11 05/09/2022 10:15:51 74.02, 20.30 56.58 05/09/2022 10:17:00 74.03, 20.42 56.59 3.87 69
12 05/12/2022 04:10:46 73.89, 111.86 55.74 05/12/2022 04:10:01 73.89, 111.83 55.74 0.96 45
13 05/12/2022 05:00:13 -73.95, -80.64 124.21 05/12/2022 05:00:41 -73.98, -80.64 124.19 2.47 28



Historial Predications of SNOs between AQUA and METOP-B
